Regional Weather Roundup
Issued by NWS Sioux Falls, SD

Home | Current Version | Previous Version | Text Only | Print | Product List | Glossary On
Versions: 1 2 3 4 5 6 7 8 9 10 11 12 13 14 15 16 17 18 19 20 21 22 23 24 25 26 27 28 29 30 31 32 33 34 35 36 37 38 39 40 41 42 43 44 45 46 47 48 49 50
000
ASUS43 KFSD 241102
RWRFSD

WEATHER ROUNDUP FOR SE SOUTH DAKOTA/SW MINNESOTA/NW IOWA
NATIONAL WEATHER SERVICE SIOUX FALLS SD
600 AM CDT SUN JUL 24 2016

NOTE: "FAIR" INDICATES FEW OR NO CLOUDS BELOW 12,000 FEET WITH NO
SIGNIFICANT WEATHER AND OR OBSTRUCTIONS TO VISIBILITY.


SDZ038>040-050-052>070-241200-
SOUTHEAST SOUTH DAKOTA

CITY           SKY/WX    TMP DP  RH WIND       PRES   REMARKS
BROOKINGS      CLEAR     66  64  93 NW9         N/A
CHAMBERLAIN    CLOUDY    71  58  63 N6        29.96R
HURON          CLEAR     60  57  89 NW8       29.94R
MADISON        FAIR      64  64 100 NW9       29.94R
MITCHELL       PTCLDY    64  61  90 NW7       29.93S
SIOUX FALLS    PTCLDY    67  65  93 NW6       29.91R
WINNER         FAIR      68  55  63 NE6       30.01R
YANKTON        PTCLDY    66  63  88 NW7       29.90F
$$

MNZ071-072-080-081-089-090-097-098-241200-
SOUTHWEST MINNESOTA

CITY           SKY/WX    TMP DP  RH WIND       PRES   REMARKS
FAIRMONT       CLEAR     73  45  35 NW12      29.83R
JACKSON        CLEAR     70  64  83 NW9       29.88R
LUVERNE        PTCLDY    64  63  94 NW6       29.91R
MARSHALL       CLEAR     66  63  90 NW9       29.88R
MONTEVIDEO     CLEAR     68  66  94 N7        29.88R
REDWOOD FALLS  CLEAR     70  67  90 W9        29.85R
TRACY          CLEAR     69  65  89 NW7       29.88R
WINDOM         CLEAR     70  66  88 NW7       29.87R
WORTHINGTON    CLEAR     67  64  90 NW8       29.90R
$$

IAZ001>003-012>014-020>022-031-032-NEZ013-014-SDZ071-241200-
NORTHWEST IOWA

CITY           SKY/WX    TMP DP  RH WIND       PRES   REMARKS
CHEROKEE       CLEAR     73  71  94 N9        29.88R
DENISON        CLEAR     77  73  88 N10       29.85R
ESTHERVILLE    CLEAR     71  68  90 NW10      29.86R
LE MARS        CLEAR     68  66  94 CALM      29.91R
SHELDON        CLEAR     68  68 100 NW3       29.89R
SIOUX CITY     CLEAR     75  64  68 N10       29.89R
SPENCER        CLEAR     70  65  84 NW9       29.87R
STORM LAKE     CLEAR     73  70  88 N10       29.88R
$$

ABBREVIATIONS USED IN REMARKS
   TC - TEMPERATURE IN CELSIUS
  WCI - WIND CHILL INDEX
   HX - HEAT INDEX
  VSB - VISIBILITY





USA.gov is the U.S. government's official web portal to all federal, state and local government web resources and services.